Location: Condor
(52.3263°N, 114.5541°W)
Time: 21:05:17
(UTC+00:00)

Oscar 19 - Pass Details

Date: 15 December 2023
Orbit: 771 x 789 km, 98.9° (Epoch: 04 March)

Event Time Altitude Azimuth Distance (km) Brightness Sun altitude
Rises 01:10:35 0° 226° (SW) 3,240 15.1 -14.9°
Reaches altitude 10° 01:15:05 10° 264° (W) 2,324 14.4 -15.6°
Maximum altitude 01:16:15 11° 277° (W) 2,277 14.1 -15.7°
Drops below altitude 10° 01:17:26 10° 290° (WNW) 2,331 13.9 -15.9°
Sets 01:21:59 0° 328° (NNW) 3,271 14.1 -16.6°
